Theta_e
291 293 293 294 293 293 293 293 293 294 294 295 295 296 297 296 296 295 296 296 297 297 297 297 297 297 297 297 297 297 297 297 298 298 298 298 298 298 297 298 298 297 297
291 292 293 293 293 293 293 291 292 293 293 294 295 295 295 297 296 296 295 296 296 297 297 296 297 297 297 297 297 297 297 297 297 297 298 298 298 298 297 297 296 296 296
290 290 291 292 292 293 293 292 291 292 293 294 294 295 295 296 297 297 296 295 295 295 296 296 296 296 296 297 296 297 297 297 298 297 298 298 298 298 297 297 297 297 298
291 290 290 290 291 292 292 292 291 291 292 293 295 295 296 297 299 300 296 296 296 295 295 296 295 295 296 296 296 296 297 297 297 297 297 298 298 298 297 297 297 297 297
291 291 291 291 290 290 290 291 292 291 292 293 294 295 296 297 301 298 297 297 297 296 296 295 296 295 295 296 295 295 296 296 296 296 296 297 297 297 297 297 297 297 298
292 292 292 292 291 291 290 289 290 291 292 293 293 295 295 295 297 299 298 298 296 296 295 295 295 295 296 297 298 299 297 296 296 296 296 297 297 297 297 297 297 297 298
292 292 292 292 292 291 291 291 290 289 291 292 293 293 295 294 294 295 294 295 295 295 296 297 296 296 296 296 296 297 297 299 296 296 297 297 297 297 297 297 297 298 298
291 291 292 292 292 292 291 290 290 290 289 290 291 293 294 294 293 293 294 294 294 294 293 293 294 296 296 297 296 296 296 296 297 298 297 297 297 297 298 298 298 298 298
291 291 291 293 293 292 291 290 291 290 290 289 289 291 292 294 293 292 293 293 293 294 295 294 293 293 293 295 296 296 295 295 295 295 295 295 296 297 297 297 297 297 297
291 291 291 292 293 292 292 291 290 291 290 290 290 289 290 291 292 292 291 292 292 293 294 294 293 293 292 292 293 293 293 292 293 293 293 293 293 294 295 297 297 297 297
291 291 291 292 293 292 292 291 290 290 290 291 290 290 289 290 291 292 291 289 290 289 290 291 293 292 292 292 292 291 291 291 292 292 291 291 291 292 292 293 293 293 294
291 291 291 292 292 293 293 292 293 290 290 290 291 291 290 289 290 290 290 290 288 289 289 289 290 290 291 291 291 291 291 291 291 291 291 291 291 292 292 292 292 292 293
291 291 292 292 292 292 292 292 293 292 291 290 290 290 291 290 289 288 289 289 288 288 288 288 288 288 289 289 289 289 290 290 290 291 291 291 291 291 291 291 291 291 291
291 292 292 292 292 292 292 292 292 292 292 291 290 291 290 291 291 289 289 288 288 288 288 288 288 288 288 288 288 288 288 288 288 289 289 289 290 290 290 290 290 290 290
292 292 292 293 293 292 292 292 291 292 292 292 291 290 291 291 290 290 289 289 288 288 289 289 289 288 288 288 288 288 288 288 288 288 288 288 288 289 289 288 288 288 289
292 292 293 293 293 293 292 292 292 292 291 290 291 290 290 290 289 289 289 289 289 289 290 289 289 289 289 289 289 288 288 288 287 288 288 288 288 288 288 288 288 288 288
292 292 292 293 293 293 293 292 291 291 291 291 290 290 290 290 290 290 291 291 291 291 290 289 289 289 289 289 289 290 290 290 290 290 290 289 289 289 289 289 289 289 289
292 292 293 293 293 293 293 291 291 291 291 291 291 291 291 290 290 291 291 292 292 291 290 290 290 290 290 290 290 290 290 290 291 291 291 291 291 290 290 290 290 290 289
292 293 293 293 293 293 293 292 291 291 291 291 291 290 290 291 291 291 291 290 290 290 290 290 290 290 290 290 290 290 291 291 291 291 291 291 290 289 289 289 290 289 289
292 292 293 293 293 293 293 293 292 292 291 291 291 291 290 291 292 291 290 290 290 290 290 290 290 289 289 289 289 289 289 290 290 291 291 290 289 289 291 290 290 289 289
292 292 293 293 294 293 293 293 292 292 292 291 291 291 290 291 290 290 290 290 290 290 290 291 291 291 291 291 291 290 290 290 290 289 290 289 289 291 291 291 291 290 290
292 292 292 293 293 293 294 293 293 292 292 292 292 291 291 291 291 291 290 290 290 290 290 291 291 291 291 291 291 292 292 291 291 291 290 290 290 292 292 293 292 291 291
291 292 292 292 293 293 293 294 294 293 292 292 292 292 292 292 291 291 291 291 291 290 290 291 292 293 292 292 291 291 292 293 292 292 292 291 291 291 291 292 294 293 292
291 291 292 292 292 293 293 293 294 294 294 293 292 292 292 292 292 292 292 292 291 291 291 291 291 291 292 293 293 293 292 291 292 293 292 292 292 292 292 292 294 294 294
291 291 291 292 292 292 292 293 293 294 294 294 293 293 293 293 293 293 292 292 292 292 292 292 292 291 291 291 292 293 293 293 291 292 292 292 292 293 292 292 291 291 292
291 291 291 291 291 291 292 292 292 293 293 294 294 294 293 293 293 293 293 293 293 293 292 292 292 292 292 292 291 291 293 294 293 291 291 292 292 292 292 291 291 291 291
Wind_Speed
36 34 34 33 33 35 33 33 32 34 30 30 31 19 12 13 11 9 8 6 7 9 13 14 15 17 24 25 23 25 25 29 30 26 21 19 19 18 15 17 18 20 21
37 33 32 31 33 34 36 33 32 35 32 32 32 31 21 9 8 9 7 7 7 7 9 8 12 14 17 20 21 22 25 23 22 24 26 24 21 20 21 22 22 22 23
37 35 33 31 33 34 34 35 36 36 36 35 37 37 29 11 9 7 5 5 5 7 8 7 9 8 10 14 19 21 19 16 18 21 21 21 21 22 23 24 23 22 21
36 36 35 34 33 31 32 33 35 37 40 39 37 42 37 24 9 5 4 3 6 7 7 7 8 9 12 12 11 13 18 24 22 21 22 21 21 21 23 26 26 23 24
35 35 34 34 34 33 30 30 32 35 38 38 40 42 44 36 15 8 6 2 6 4 5 7 9 8 11 11 10 15 18 21 23 23 24 28 27 26 26 25 25 22 22
34 33 35 35 33 32 32 33 32 33 37 38 40 39 44 44 32 8 3 3 2 5 2 3 5 8 11 12 11 11 19 17 20 21 21 23 28 31 29 26 21 23 23
33 33 34 34 34 33 27 29 39 37 33 36 38 41 39 39 35 35 33 29 24 15 7 5 4 5 5 9 10 12 17 13 14 15 17 17 17 18 20 21 21 21 22
30 32 34 33 33 35 31 31 33 37 38 34 34 36 38 36 33 29 28 27 25 31 31 25 15 4 6 6 6 5 3 3 4 16 20 20 17 18 21 23 23 21 21
32 32 32 33 29 36 37 31 28 30 33 38 33 31 34 36 30 30 28 28 28 28 23 27 28 24 20 9 3 6 4 3 6 4 2 6 20 25 27 28 26 23 21
31 30 28 29 29 29 36 34 28 28 30 29 34 35 30 34 30 27 23 26 30 32 31 28 27 24 24 20 17 12 10 10 7 3 3 2 1 3 9 14 17 19 20
27 26 26 27 30 25 26 33 31 29 28 28 32 32 36 31 30 29 27 24 24 27 27 27 29 23 21 22 22 19 15 10 11 10 11 11 11 10 8 4 3 9 16
25 25 25 25 26 27 24 24 28 33 32 31 31 31 34 34 29 28 28 26 25 27 26 26 24 21 26 23 21 19 17 16 16 16 17 17 16 15 12 7 5 7 5
24 24 25 25 24 24 27 27 26 28 32 30 33 33 30 34 31 28 27 25 26 26 24 23 23 24 24 24 22 21 19 18 18 18 19 19 18 16 14 13 10 8 8
24 24 25 25 26 26 25 28 27 29 28 29 31 29 29 29 31 29 27 25 23 23 22 23 23 23 24 23 22 22 21 21 20 19 17 14 12 10 11 10 8 6 4
22 23 23 25 25 25 27 27 27 24 23 26 26 26 26 27 25 23 25 26 26 24 23 25 27 27 27 26 24 21 19 17 17 14 13 12 12 10 10 10 9 7 5
21 22 23 23 24 25 25 24 25 26 26 23 22 24 25 23 24 25 25 25 25 24 27 29 29 28 27 26 25 23 21 20 18 16 14 13 12 11 9 8 7 6 5
20 20 21 21 22 25 25 25 25 25 26 26 27 26 25 24 25 25 26 25 25 25 29 28 27 26 24 23 22 22 22 20 17 17 16 15 13 12 11 10 9 7 6
16 17 18 19 20 21 22 23 24 26 27 26 26 26 25 25 26 25 25 24 27 29 29 28 26 25 24 23 21 20 19 20 20 20 19 18 17 16 14 12 11 10 8
15 15 16 17 17 19 19 20 22 23 25 25 25 26 26 25 26 25 26 29 29 28 28 27 26 25 24 22 22 21 20 20 19 20 21 21 20 19 15 11 10 9 8
13 13 13 14 15 16 17 19 20 22 24 26 27 28 28 28 29 30 30 30 29 29 28 27 26 25 24 23 22 21 20 19 18 17 17 18 18 19 22 19 14 12 11
14 12 11 12 13 15 16 17 18 19 21 23 25 26 26 27 29 30 31 32 31 30 29 28 26 25 25 24 24 23 23 22 21 19 17 17 18 21 23 23 21 19 16
12 13 10 10 11 12 13 14 15 17 18 19 21 22 23 25 27 28 30 30 30 30 30 29 29 28 27 26 25 24 24 24 23 22 20 19 19 19 21 21 23 22 20
9 12 12 10 9 10 11 12 13 14 16 17 18 19 21 23 25 26 27 28 28 28 29 29 29 29 29 28 27 25 24 23 23 22 20 19 19 18 18 21 24 24 23
7 8 11 12 10 8 9 10 11 13 14 14 15 17 19 21 22 23 25 25 26 26 27 28 29 29 29 29 29 29 25 23 21 20 20 20 20 19 18 20 23 27 28
9 6 6 7 10 10 8 7 9 10 11 13 13 14 15 16 18 20 21 23 24 25 26 27 27 28 29 29 29 30 29 26 23 21 19 19 20 20 19 19 19 18 18
10 9 8 6 6 8 10 9 7 8 9 10 11 12 13 14 15 16 17 19 20 22 23 24 25 26 26 27 28 28 29 29 28 24 22 20 20 20 20 20 20 20 19
Wind_Direction
7 10 11 15 13 13 12 16 16 17 12 12 6 342 328 332 333 322 307 290 275 269 247 250 247 247 237 228 229 233 233 232 234 238 234 236 239 244 245 247 254 266 273
8 11 13 13 13 11 14 17 17 16 20 18 15 6 347 306 319 327 320 304 286 295 269 261 253 230 235 217 213 223 229 230 233 236 242 243 242 242 254 254 265 272 271
11 14 14 13 14 16 16 16 20 20 21 24 26 17 6 346 291 297 298 296 284 299 274 279 259 254 271 262 239 213 205 213 223 230 233 237 239 243 249 261 267 273 266
14 15 17 18 16 14 17 20 22 22 21 26 25 24 19 20 333 339 183 252 270 259 258 279 262 263 269 256 243 250 243 232 237 241 241 238 239 244 253 263 270 267 275
14 15 17 20 21 18 17 19 24 26 25 26 34 30 29 27 26 96 97 345 311 268 247 261 268 261 261 254 253 251 241 239 242 248 252 247 248 250 257 270 270 265 270
13 14 17 17 20 20 25 27 24 27 29 30 36 35 33 34 45 66 33 348 13 8 37 284 287 271 260 258 253 272 244 241 238 239 248 246 249 255 261 262 267 276 276
13 15 16 15 18 16 13 26 31 27 25 31 34 41 39 36 43 59 62 59 53 42 2 340 274 283 272 249 254 275 290 228 235 242 247 254 263 258 257 257 260 270 275
8 10 13 12 19 20 21 25 27 26 29 27 32 41 46 40 40 51 65 63 56 50 46 45 44 342 268 267 249 272 329 301 223 232 248 256 262 261 257 258 261 265 270
8 9 9 12 16 26 26 27 26 20 22 30 34 38 42 43 35 41 53 59 58 59 53 43 47 47 46 43 254 269 283 313 297 325 1 280 258 252 255 257 259 260 249
8 8 9 12 13 21 27 28 32 30 27 23 27 36 43 45 37 36 45 51 54 59 59 50 46 50 49 54 64 73 77 59 49 52 28 12 346 234 244 241 238 234 233
6 9 12 14 18 21 28 29 34 40 36 28 30 31 35 42 41 38 36 47 51 50 48 50 50 48 51 52 48 49 53 55 61 64 68 65 63 60 59 75 184 214 198
9 12 16 17 20 25 31 22 23 38 40 39 38 33 32 35 37 41 40 44 47 55 48 50 48 60 60 55 60 64 67 71 72 71 70 67 69 71 74 84 125 157 165
16 17 20 20 22 20 25 39 28 26 28 36 36 35 34 30 38 42 43 45 47 52 57 56 59 60 61 62 60 61 62 61 66 69 65 63 62 65 65 68 79 92 106
17 19 21 21 22 24 25 28 38 30 26 21 36 30 30 35 33 37 44 47 52 51 55 59 59 59 59 60 59 57 56 54 53 54 54 53 52 53 55 59 62 72 84
19 20 23 24 23 24 25 29 32 39 29 29 24 33 27 26 31 37 40 47 50 55 60 62 59 57 56 55 54 53 53 50 49 47 46 47 48 47 48 47 49 50 65
20 18 21 22 24 27 29 32 35 36 38 41 37 35 41 41 43 46 50 51 51 53 54 53 50 49 47 46 46 48 48 47 46 45 44 43 41 40 38 34 34 34 32
18 16 20 21 24 24 25 31 38 39 40 43 44 46 43 44 45 46 47 49 50 50 51 49 48 45 43 41 39 38 40 38 37 38 36 35 33 33 35 33 25 14 11
23 17 17 21 22 26 26 29 34 37 39 41 44 42 42 43 44 44 45 44 44 42 42 41 41 40 38 36 35 35 32 35 38 39 40 38 36 33 32 33 34 34 38
22 23 20 19 20 24 28 30 35 40 44 44 47 48 42 42 42 39 38 40 39 37 36 36 36 36 36 35 34 34 31 30 30 32 34 34 30 25 22 19 18 16 10
14 21 20 20 20 23 28 32 35 38 41 43 42 43 41 39 42 41 41 40 39 37 35 34 34 34 34 33 33 34 33 32 34 37 41 36 35 28 34 41 42 43 42
4 12 21 19 18 21 24 29 31 32 35 39 41 40 38 38 40 39 39 39 39 38 36 35 35 36 36 35 34 35 36 34 36 38 42 43 45 41 43 45 47 51 52
7 357 8 21 20 16 20 22 26 29 31 34 39 41 40 41 42 43 42 40 39 39 39 39 38 37 35 35 36 36 37 39 40 43 45 50 52 48 44 53 58 58 58
22 2 350 1 18 18 12 14 19 24 28 29 31 34 37 40 40 40 40 39 39 40 40 40 42 43 42 40 37 35 37 40 38 41 46 50 53 53 52 49 49 51 55
14 25 3 350 352 10 13 9 10 13 17 23 26 29 31 33 35 36 37 38 37 38 39 40 40 41 42 43 43 42 38 39 44 44 46 50 53 53 56 61 63 64 63
353 6 23 6 348 343 355 6 4 3 6 10 17 22 25 28 31 32 32 34 35 36 36 36 37 37 38 40 42 42 42 41 41 46 50 51 57 57 54 58 64 67 67
350 345 347 360 4 348 339 340 353 357 356 359 3 8 13 18 22 26 28 30 31 33 34 35 35 36 36 36 37 38 41 43 44 44 46 52 56 57 56 58 61 65 69